This is the latest recevied weather packets stored in our database for station/object JS2WAD-13. If no packets are shown the sender has not sent any weather packets the latest 10 day(s).
| Time | Temp. | Humidity | Pressure | Rain* | Wind** | Luminosity | Snow |
|---|---|---|---|---|---|---|---|
| 1777778490 | 23.33° C | 60% | 901.5 hPa | 0 mm | - | 102 W/m² | - |
| 1777778191 | 23.33° C | 60% | 901.6 hPa | 0 mm | - | 125 W/m² | - |
| 1777777891 | 23.89° C | 58% | 901.6 hPa | 0 mm | - | 165 W/m² | - |
| 1777777591 | 23.89° C | 57% | 901.6 hPa | 0 mm | - | 237 W/m² | - |
| 1777777291 | 23.89° C | 56% | 901.5 hPa | 0 mm | - | 316 W/m² | - |
| 1777776991 | 23.89° C | 55% | 901.8 hPa | 0 mm | - | 288 W/m² | - |
| 1777776691 | 23.33° C | 54% | 901.9 hPa | 0 mm | - | 443 W/m² | - |
| 1777776391 | 23.33° C | 53% | 901.8 hPa | 0 mm | - | 508 W/m² | - |
| 1777776091 | 22.78° C | 52% | 901.9 hPa | 0 mm | - | 381 W/m² | - |
| 1777775791 | 22.78° C | 52% | 901.9 hPa | 0 mm | - | 311 W/m² | - |
| 1777775491 | 22.78° C | 51% | 902.1 hPa | 0 mm | - | 229 W/m² | - |
| 1777775191 | 22.78° C | 51% | 902.2 hPa | 0 mm | - | 207 W/m² | - |
| 1777774891 | 22.78° C | 51% | 902.2 hPa | 0 mm | - | 149 W/m² | - |
| 1777774591 | 22.78° C | 51% | 902.4 hPa | 0 mm | - | 227 W/m² | - |
| 1777774291 | 22.22° C | 52% | 902.4 hPa | 0 mm | - | 199 W/m² | - |
| 1777773991 | 22.22° C | 52% | 902.4 hPa | 0 mm | - | 186 W/m² | - |
| 1777773691 | 22.22° C | 51% | 902.6 hPa | 0 mm | - | 195 W/m² | - |
| 1777773391 | 22.22° C | 52% | 902.6 hPa | 0 mm | - | 214 W/m² | - |
| 1777773091 | 22.22° C | 53% | 902.6 hPa | 0 mm | - | 218 W/m² | - |
| 1777772791 | 22.22° C | 53% | 902.5 hPa | 0 mm | - | 223 W/m² | - |
| 1777772491 | 21.67° C | 53% | 902.5 hPa | 0 mm | - | 165 W/m² | - |
| 1777771891 | 21.67° C | 53% | 902.7 hPa | 0 mm | - | 153 W/m² | - |
| 1777771591 | 21.67° C | 52% | 902.6 hPa | 0 mm | - | 178 W/m² | - |
| 1777771291 | 21.67° C | 52% | 902.8 hPa | 0 mm | - | 236 W/m² | - |
| 1777769791 | 20.56° C | 56% | 903.2 hPa | 0 mm | - | 209 W/m² | - |
* Rain latest hour (hover to see other rain measurements)
** Current wind speed in m/s (hover to see current wind gust speed)